IZ3VCM Weather Reports


Display with metric or nautical units.
time (UTC)temp
F
wind
direction
speed
MPH
gust
MPH
rain 1hr
in
rain 24hr
in
rain mn
in
humidity
%
barometer
mb
20260831150007 96 345 3.0 6.0 0.00 0.00 0.00 44 1012.5
20260831144505 97 337 0.0 1.0 0.00 0.00 0.00 47 1012.5
20260831143007 97 1 0.0 1.0 0.00 0.00 0.00 46 1012.5
20260831141504 96 292 1.0 3.0 0.00 0.00 0.00 47 1012.5
20260831140007 95 296 2.0 4.0 0.00 0.00 0.00 45 1012.6
20260831134505 95 334 3.0 7.0 0.00 0.00 0.00 45 1012.7
20260831133007 96 292 0.0 2.0 0.00 0.00 0.00 47 1012.7
20260831131504 96 0 0.0 0.0 0.00 0.00 0.00 50 1012.7
20260831130007 95 286 4.0 5.0 0.00 0.00 0.00 45 1013.0
20260831124504 95 312 3.0 6.0 0.00 0.00 0.00 48 1013.1
20260831123006 94 261 2.0 5.0 0.00 0.00 0.00 48 1013.3
20260831121504 95 332 3.0 4.0 0.00 0.00 0.00 47 1013.3
20260831120007 95 292 0.0 1.0 0.00 0.00 0.00 49 1013.5
20260831114504 94 279 1.0 3.0 0.00 0.00 0.00 50 1013.6
20260831113007 93 292 1.0 1.0 0.00 0.00 0.00 49 1013.6
20260831111505 93 229 1.0 5.0 0.00 0.00 0.00 49 1013.8
20260831110006 92 312 5.0 7.0 0.00 0.00 0.00 48 1013.8
20260831104504 92 306 3.0 7.0 0.00 0.00 0.00 49 1013.9
20260831103007 93 203 1.0 6.0 0.00 0.00 0.00 50 1014.0
20260831101504 93 225 0.0 1.0 0.00 0.00 0.00 52 1014.2
20260831100007 93 225 1.0 2.0 0.00 0.00 0.00 50 1014.3
20260831094504 93 0 0.0 0.0 0.00 0.00 0.00 52 1014.3
20260831093006 92 0 0.0 0.0 0.00 0.00 0.00 52 1014.5
20260831091504 91 0 0.0 0.0 0.00 0.00 0.00 52 1014.5
20260831090006 91 181 0.0 1.0 0.00 0.00 0.00 54 1014.6
20260831084505 91 0 0.0 0.0 0.00 0.00 0.00 54 1014.4
20260831083006 88 181 0.0 2.0 0.00 0.00 0.00 57 1014.3
20260831081504 87 0 0.0 0.0 0.00 0.00 0.00 60 1014.3
20260831080006 86 181 1.0 3.0 0.00 0.00 0.00 61 1014.3
20260831074504 84 181 1.0 2.0 0.00 0.00 0.00 64 1014.4
20260831073006 84 0 0.0 0.0 0.00 0.00 0.00 64 1014.0
20260831071504 83 0 0.0 0.0 0.00 0.00 0.00 63 1014.0
20260831070006 81 0 0.0 0.0 0.00 0.00 0.00 66 1013.7
20260831064504 80 181 0.0 3.0 0.00 0.00 0.00 67 1013.7
20260831063007 80 0 0.0 0.0 0.00 0.00 0.00 69 1013.8
20260830221506 68 0 0.0 0.0 0.00 0.00 0.00 81 1013.8
20260830220008 69 0 0.0 0.0 0.00 0.00 0.00 79 1013.9
20260830214505 71 0 0.0 0.0 0.00 0.00 0.00 77 1013.9
20260830213007 74 0 0.0 0.0 0.00 0.00 0.00 73 1014.0
20260830211505 74 0 0.0 0.0 0.00 0.00 0.00 72 1013.8
20260830210008 75 0 0.0 0.0 0.00 0.00 0.00 72 1013.7
20260830204505 75 156 0.0 2.0 0.00 0.00 0.00 72 1013.8
20260830203007 75 156 0.0 0.0 0.00 0.00 0.00 72 1013.7
20260830201505 74 156 1.0 6.0 0.00 0.00 0.00 72 1013.6
20260830200007 73 0 0.0 0.0 0.00 0.00 0.00 74 1013.5
20260830194505 72 0 0.0 0.0 0.00 0.00 0.00 74 1013.6
20260830193007 73 0 0.0 0.0 0.00 0.00 0.00 73 1013.5
20260830191505 74 0 0.0 0.0 0.00 0.00 0.00 71 1013.5
20260830190007 75 0 0.0 0.0 0.00 0.00 0.00 70 1013.4
20260830184505 76 0 0.0 0.0 0.00 0.00 0.00 68 1013.5
20260830183007 76 0 0.0 0.0 0.00 0.00 0.00 68 1013.2
20260830181505 78 0 0.0 0.0 0.00 0.00 0.00 65 1013.0
20260830180008 79 0 0.0 0.0 0.00 0.00 0.00 64 1012.8
20260830174504 80 0 0.0 0.0 0.00 0.00 0.00 61 1012.7
20260830173007 83 0 0.0 0.0 0.00 0.00 0.00 59 1012.4
20260830171505 86 0 0.0 0.0 0.00 0.00 0.00 56 1012.5
20260830170007 88 0 0.0 0.0 0.00 0.00 0.00 52 1012.7
20260830164505 89 68 0.0 1.0 0.00 0.00 0.00 50 1012.7
20260830163007 91 112 2.0 4.0 0.00 0.00 0.00 49 1012.7
20260830161505 92 112 0.0 1.0 0.00 0.00 0.00 47 1012.8
20260830160007 92 112 1.0 2.0 0.00 0.00 0.00 45 1012.9
20260830154504 92 126 2.0 3.0 0.00 0.00 0.00 45 1012.9
20260830153007 93 135 0.0 1.0 0.00 0.00 0.00 44 1013.1
20260830151505 92 93 2.0 3.0 0.00 0.00 0.00 47 1012.9